Weather in Staroe Khanino

Russia / Tula Oblast     54°11′42″N   36°37′31″E
temp.,
°C
wind,
m/s
gust,
m/s
humid.,
%
clouds,
%
prec.,
mm/h
press.,
hPa
HPBL,
m
18 may, tue
tue1800:00+18se615787 0.0 1007454
03:00+15ese412880 0.0 1007220
06:00+15ese410853 0.0 1007210
09:00+20se6116892 0.0 1007445
12:00+24se7125855 0.0 1007928
15:00+24ese61159100 0.0 10061308
18:00+22ese7146793 0.0 1005853
21:00+18se4118445 0.0 1005307
19 may, wed
wed1900:00+15sse31191100 0.1 1006388
03:00+13ese4109483 0.1 1006234
06:00+14sse41088100 0.0 1006394
09:00+17se4677100 0.0 1007629
12:00+19sse477257 0.6 10071080
15:00+21sse466077 1.1 10061577
18:00+21s2368100 0.1 1005750
21:00+15sse1184100 0.4 100612
20 may, thu
thu2000:00+14ese3489100 0.0 100652
03:00+13ese389298 0.1 1005158
06:00+13se51197100 0.8 1006570
09:00+14sse7128894 1.0 1005840
12:00+17sse7107284 0.4 10061376
15:00+17s687437 1.8 10061190
18:00+16ssw57777 0.8 1005909
21:00+12sw499450 1.4 1006350
21 may, fri
fri2100:00+11sw51091100 0.1 1007765
03:00+8sw71291100 0.2 1008796
06:00+9sw71390100 0.0 10091011
09:00+9sw81390100 0.1 1012992
12:00+11sw7128398 0.1 10141177
15:00+12w587647 0.2 1016924
18:00+13w3670100 0.1 1018339
21:00+11ene1179100 0.1 101911
22 may, sat
sat2200:00+10e3485100 0.0 101967
03:00+10e3785100 0.2 1019197
06:00+9ese3898100 3.9 1020322
09:00+10ene4896100 5.7 1019326
12:00+11ne5992100 0.0 1018407
15:00+13nne3694100 0.6 1018674
18:00+12ne5997100 3.9 1017397
21:00+11nne479899 3.9 1018250